• In Hungary
  • List of Countries
  • For 7 days
  • Water Temperature
  • Satellite Maps
  • Weather Map
  • News
  • Weather Widgets
  • user-avatar
    Login

    Hourly Weather Ganja

    Today, 23 September, Sunday

    Time Temperature Precipitation Wind Pressure Humidity
    00:00 +20°C° 1.9 mm 2 mps 728 mmHg 82%
    01:00 +20°C° 0.4 mm 2 mps 727 mmHg 83%
    02:00 +20°C° 0.4 mm 2 mps 727 mmHg 83%
    03:00 +20°C° 0 mm 1 mps 727 mmHg 85%
    04:00 +20°C° 0 mm 1 mps 727 mmHg 86%
    05:00 +20°C° 0 mm 1 mps 727 mmHg 86%
    06:00 +20°C° 0 mm 1 mps 727 mmHg 87%
    07:00 +20°C° 0 mm 1 mps 727 mmHg 82%
    08:00 +21°C° 0 mm 1 mps 727 mmHg 78%
    09:00 +22°C° 0 mm 1 mps 727 mmHg 74%
    10:00 +23°C° 0 mm 1 mps 727 mmHg 69%
    11:00 +24°C° 0 mm 1 mps 727 mmHg 65%
    12:00 +25°C° 0 mm 2 mps 726 mmHg 61%
    13:00 +25°C° 0.1 mm 2 mps 726 mmHg 59%
    14:00 +26°C° 0.1 mm 2 mps 726 mmHg 57%
    15:00 +26°C° 0.1 mm 2 mps 726 mmHg 55%
    16:00 +25°C° 0.2 mm 2 mps 726 mmHg 58%
    17:00 +25°C° 0.2 mm 1 mps 726 mmHg 61%
    18:00 +24°C° 0.2 mm 1 mps 726 mmHg 64%
    19:00 +24°C° 0.1 mm 1 mps 726 mmHg 66%
    20:00 +23°C° 0.1 mm 1 mps 726 mmHg 67%
    21:00 +23°C° 0.1 mm 1 mps 727 mmHg 69%
    22:00 +22°C° 0 mm 1 mps 727 mmHg 70%
    23:00 +22°C° 0 mm 1 mps 727 mmHg 70%

    Tomorrow, 24 September, Monday

    Time Temperature Precipitation Wind Pressure Humidity
    00:00 +22°C° 0 mm 1 mps 727 mmHg 71%
    01:00 +21°C° 0 mm 1 mps 727 mmHg 71%
    02:00 +20°C° 0 mm 2 mps 727 mmHg 71%
    03:00 +20°C° 0 mm 2 mps 727 mmHg 71%
    04:00 +19°C° 0 mm 2 mps 727 mmHg 71%
    05:00 +19°C° 0 mm 2 mps 727 mmHg 70%
    06:00 +19°C° 0 mm 2 mps 727 mmHg 69%
    07:00 +21°C° 0 mm 3 mps 728 mmHg 62%
    08:00 +22°C° 0 mm 3 mps 728 mmHg 56%
    09:00 +25°C° 0 mm 4 mps 728 mmHg 49%
    10:00 +26°C° 0 mm 3 mps 728 mmHg 46%
    11:00 +27°C° 0 mm 3 mps 728 mmHg 43%
    12:00 +28°C° 0 mm 3 mps 728 mmHg 40%
    13:00 +28°C° 0 mm 2 mps 728 mmHg 40%
    14:00 +28°C° 0 mm 2 mps 727 mmHg 40%
    15:00 +29°C° 0 mm 2 mps 727 mmHg 39%
    16:00 +28°C° 0 mm 2 mps 727 mmHg 43%
    17:00 +27°C° 0 mm 2 mps 727 mmHg 47%
    18:00 +26°C° 0 mm 2 mps 728 mmHg 50%
    19:00 +25°C° 0 mm 2 mps 728 mmHg 53%
    20:00 +24°C° 0 mm 2 mps 728 mmHg 56%
    21:00 +23°C° 0 mm 2 mps 728 mmHg 59%
    22:00 +23°C° 0 mm 2 mps 728 mmHg 60%
    23:00 +21°C° 0 mm 2 mps 728 mmHg 62%

    Day after tomorrow, 25 September, Tuesday

    Time Temperature Precipitation Wind Pressure Humidity
    00:00 +21°C° 0 mm 2 mps 728 mmHg 64%
    01:00 +20°C° 0 mm 2 mps 727 mmHg 66%
    02:00 +21°C° 0 mm 1 mps 727 mmHg 67%
    03:00 +21°C° 0 mm 1 mps 727 mmHg 69%
    04:00 +20°C° 0 mm 1 mps 727 mmHg 68%
    05:00 +20°C° 0 mm 1 mps 727 mmHg 68%
    06:00 +20°C° 0 mm 1 mps 726 mmHg 67%
    07:00 +22°C° 0 mm 1 mps 726 mmHg 62%
    08:00 +23°C° 0 mm 1 mps 726 mmHg 57%
    09:00 +25°C° 0 mm 1 mps 726 mmHg 52%
    10:00 +26°C° 0 mm 2 mps 725 mmHg 50%
    11:00 +27°C° 0 mm 2 mps 725 mmHg 47%
    12:00 +28°C° 0 mm 2 mps 724 mmHg 44%
    13:00 +28°C° 0 mm 2 mps 724 mmHg 44%
    14:00 +29°C° 0 mm 2 mps 724 mmHg 43%
    15:00 +29°C° 0 mm 2 mps 723 mmHg 43%
    16:00 +28°C° 0 mm 1 mps 723 mmHg 47%
    17:00 +27°C° 0 mm 1 mps 723 mmHg 52%
    18:00 +24°C° 0 mm 0 mps 723 mmHg 56%
    19:00 +23°C° 0 mm 0 mps 724 mmHg 58%
    20:00 +23°C° 0 mm 0 mps 724 mmHg 60%
    21:00 +22°C° 0 mm 0 mps 725 mmHg 62%
    22:00 +24°C° 0 mm 1 mps 725 mmHg 62%
    23:00 +23°C° 0 mm 1 mps 725 mmHg 63%

    26 September, Wednesday

    Time Temperature Precipitation Wind Pressure Humidity
    00:00 +23°C° 0 mm 1 mps 725 mmHg 64%
    01:00 +23°C° 0 mm 1 mps 725 mmHg 64%
    02:00 +22°C° 0 mm 1 mps 725 mmHg 64%
    03:00 +22°C° 0 mm 1 mps 725 mmHg 64%
    04:00 +20°C° 0 mm 2 mps 725 mmHg 63%
    05:00 +20°C° 0 mm 2 mps 725 mmHg 63%
    06:00 +20°C° 0 mm 2 mps 725 mmHg 62%
    07:00 +21°C° 0 mm 3 mps 725 mmHg 58%
    08:00 +24°C° 0 mm 3 mps 725 mmHg 53%
    09:00 +26°C° 0 mm 4 mps 726 mmHg 48%
    10:00 +26°C° 0 mm 3 mps 726 mmHg 47%
    11:00 +27°C° 0 mm 3 mps 725 mmHg 46%
    12:00 +27°C° 0 mm 2 mps 725 mmHg 45%
    13:00 +27°C° 0.1 mm 3 mps 725 mmHg 44%
    14:00 +28°C° 0.1 mm 3 mps 725 mmHg 44%
    15:00 +28°C° 0.1 mm 3 mps 725 mmHg 44%
    16:00 +27°C° 0 mm 3 mps 725 mmHg 48%
    17:00 +26°C° 0 mm 4 mps 725 mmHg 52%
    18:00 +25°C° 0 mm 4 mps 726 mmHg 57%
    19:00 +23°C° 0.1 mm 4 mps 726 mmHg 60%
    20:00 +23°C° 0.1 mm 5 mps 726 mmHg 64%
    21:00 +22°C° 0.1 mm 5 mps 727 mmHg 68%
    22:00 +21°C° 0 mm 5 mps 727 mmHg 70%
    23:00 +21°C° 0 mm 5 mps 727 mmHg 72%

    27 September, Thursday

    Time Temperature Precipitation Wind Pressure Humidity
    00:00 +20°C° 0 mm 4 mps 727 mmHg 74%
    01:00 +20°C° 0 mm 4 mps 727 mmHg 75%
    02:00 +19°C° 0 mm 4 mps 727 mmHg 76%
    03:00 +19°C° 0 mm 3 mps 727 mmHg 77%
    04:00 +19°C° 0 mm 3 mps 727 mmHg 77%
    05:00 +19°C° 0 mm 3 mps 728 mmHg 77%
    06:00 +19°C° 0 mm 3 mps 728 mmHg 77%
    07:00 +19°C° 0 mm 3 mps 728 mmHg 75%
    08:00 +19°C° 0 mm 3 mps 728 mmHg 72%
    09:00 +20°C° 0 mm 3 mps 729 mmHg 70%
    10:00 +20°C° 0 mm 3 mps 728 mmHg 68%
    11:00 +21°C° 0 mm 3 mps 728 mmHg 66%
    12:00 +22°C° 0 mm 3 mps 728 mmHg 64%
    13:00 +22°C° 0 mm 3 mps 728 mmHg 62%
    14:00 +22°C° 0 mm 3 mps 728 mmHg 61%
    15:00 +24°C° 0 mm 3 mps 728 mmHg 60%
    16:00 +22°C° 0 mm 3 mps 728 mmHg 62%
    17:00 +22°C° 0 mm 3 mps 728 mmHg 65%
    18:00 +21°C° 0 mm 3 mps 729 mmHg 67%
    19:00 +20°C° 0 mm 3 mps 729 mmHg 69%
    20:00 +20°C° 0 mm 3 mps 729 mmHg 72%
    21:00 +19°C° 0 mm 2 mps 730 mmHg 74%
    22:00 +19°C° 0 mm 2 mps 730 mmHg 76%
    23:00 +19°C° 0 mm 2 mps 729 mmHg 78%

    28 September, Friday

    Time Temperature Precipitation Wind Pressure Humidity
    00:00 +19°C° 0 mm 1 mps 729 mmHg 80%
    01:00 +19°C° 0 mm 1 mps 729 mmHg 81%
    02:00 +19°C° 0 mm 1 mps 729 mmHg 83%
    03:00 +16°C° 0 mm 0 mps 729 mmHg 84%
    04:00 +16°C° 0 mm 0 mps 729 mmHg 86%
    05:00 +16°C° 0 mm 0 mps 729 mmHg 87%
    06:00 +16°C° 0 mm 0 mps 729 mmHg 88%
    07:00 +19°C° 0 mm 1 mps 729 mmHg 82%
    08:00 +20°C° 0 mm 1 mps 729 mmHg 76%
    09:00 +22°C° 0 mm 1 mps 729 mmHg 70%
    10:00 +23°C° 0 mm 2 mps 729 mmHg 65%
    11:00 +24°C° 0 mm 2 mps 728 mmHg 61%
    12:00 +25°C° 0 mm 2 mps 728 mmHg 56%
    13:00 +26°C° 0 mm 2 mps 728 mmHg 55%
    14:00 +26°C° 0 mm 2 mps 727 mmHg 54%
    15:00 +27°C° 0 mm 2 mps 727 mmHg 52%
    16:00 +26°C° 0 mm 2 mps 727 mmHg 57%
    17:00 +25°C° 0 mm 2 mps 727 mmHg 62%
    18:00 +24°C° 0 mm 2 mps 727 mmHg 66%
    19:00 +23°C° 0 mm 2 mps 728 mmHg 68%
    20:00 +21°C° 0 mm 2 mps 728 mmHg 70%
    21:00 +21°C° 0 mm 2 mps 728 mmHg 72%
    22:00 +21°C° 0 mm 2 mps 728 mmHg 74%
    23:00 +21°C° 0 mm 1 mps 728 mmHg 75%
    Show more